TimeEDT,TemperatureF,Dew PointF,Humidity,Sea Level PressureIn,VisibilityMPH,Wind Direction,Wind SpeedMPH,Gust SpeedMPH,PrecipitationIn,Events,Conditions,WindDirDegrees,DateUTC
12:53 AM,68.0,64.9,90,29.94,4.0,Variable,5.8,-,0.05,Rain,Light Rain,0,2013-08-28 04:53:00
1:03 AM,68.0,64.9,90,29.99,4.0,WSW,3.5,-,0.01,Rain,Rain,250,2013-08-28 05:03:00
1:16 AM,68.0,64.9,90,29.99,3.0,Variable,4.6,-,0.02,Rain,Rain,0,2013-08-28 05:16:00
1:26 AM,68.0,64.9,90,29.98,4.0,West,3.5,-,0.03,Rain,Light Rain,270,2013-08-28 05:26:00
1:53 AM,66.9,64.9,93,29.93,3.0,West,3.5,-,0.06,Rain,Light Rain,280,2013-08-28 05:53:00
2:07 AM,66.9,64.9,93,29.98,2.0,Calm,Calm,-,0.01,Rain,Heavy Rain,0,2013-08-28 06:07:00
2:19 AM,66.9,64.0,90,29.97,4.0,Calm,Calm,-,0.03,Rain,Light Rain,0,2013-08-28 06:19:00
2:53 AM,66.9,64.0,90,29.90,8.0,Calm,Calm,-,0.07,Rain,Light Rain,0,2013-08-28 06:53:00
3:53 AM,66.9,64.0,90,29.89,8.0,Calm,Calm,-,0.04,,Overcast,0,2013-08-28 07:53:00
4:39 AM,66.9,64.0,90,29.94,9.0,Calm,Calm,-,N/A,,Overcast,0,2013-08-28 08:39:00
4:53 AM,66.0,64.0,93,29.89,5.0,Calm,Calm,-,N/A,,Overcast,0,2013-08-28 08:53:00
5:53 AM,66.0,64.0,93,29.89,5.0,South,3.5,-,0.00,Rain,Light Rain,190,2013-08-28 09:53:00
6:04 AM,66.0,63.0,90,29.94,4.0,SSW,4.6,-,0.01,Rain,Rain,200,2013-08-28 10:04:00
6:37 AM,66.0,63.0,90,29.94,8.0,Calm,Calm,-,0.02,Rain,Light Rain,0,2013-08-28 10:37:00
6:53 AM,66.0,63.0,90,29.90,5.0,Calm,Calm,-,0.02,Rain,Light Rain,0,2013-08-28 10:53:00
6:58 AM,66.0,64.0,93,29.95,5.0,Calm,Calm,-,0.01,Rain,Light Rain,0,2013-08-28 10:58:00
7:31 AM,66.0,64.0,93,29.95,6.0,SE,3.5,-,0.02,Rain,Light Rain,140,2013-08-28 11:31:00
7:46 AM,66.0,64.0,93,29.95,6.0,Calm,Calm,-,0.02,,Overcast,0,2013-08-28 11:46:00
7:53 AM,66.0,64.0,93,29.90,5.0,Calm,Calm,-,0.02,,Overcast,0,2013-08-28 11:53:00
8:41 AM,66.9,64.9,93,29.94,3.0,SSE,3.5,-,0.01,,Overcast,150,2013-08-28 12:41:00
8:53 AM,68.0,66.0,93,29.89,4.0,South,4.6,-,0.01,,Overcast,170,2013-08-28 12:53:00
9:04 AM,69.1,66.0,90,29.93,5.0,SSE,3.5,-,0.01,Rain,Light Rain,160,2013-08-28 13:04:00
9:53 AM,70.0,66.9,90,29.88,8.0,SSW,3.5,-,0.01,,Overcast,200,2013-08-28 13:53:00
10:11 AM,70.0,66.0,87,29.93,10.0,SW,4.6,-,N/A,,Overcast,230,2013-08-28 14:11:00
10:53 AM,71.1,66.9,87,29.88,8.0,SSE,3.5,-,N/A,,Overcast,160,2013-08-28 14:53:00
11:37 AM,72.0,66.0,81,29.93,10.0,Calm,Calm,-,N/A,,Overcast,0,2013-08-28 15:37:00
11:53 AM,72.0,66.9,84,29.88,9.0,Calm,Calm,-,N/A,,Overcast,0,2013-08-28 15:53:00
12:39 PM,73.0,66.9,81,29.92,10.0,Calm,Calm,-,N/A,,Overcast,0,2013-08-28 16:39:00
12:53 PM,73.0,66.9,81,29.87,10.0,Calm,Calm,-,N/A,,Overcast,0,2013-08-28 16:53:00
1:21 PM,73.0,66.9,81,29.92,9.0,ENE,5.8,-,N/A,,Overcast,70,2013-08-28 17:21:00
1:50 PM,71.6,68.0,88,29.92,6.0,East,6.9,-,N/A,,Overcast,80,2013-08-28 17:50:00
1:53 PM,72.0,68.0,87,29.88,6.0,ENE,5.8,-,N/A,,Overcast,70,2013-08-28 17:53:00
2:00 PM,72.0,68.0,87,29.92,5.0,ENE,5.8,-,N/A,,Overcast,70,2013-08-28 18:00:00
2:13 PM,73.0,68.0,84,29.92,5.0,ENE,4.6,-,N/A,,Haze,70,2013-08-28 18:13:00
2:36 PM,72.0,66.9,84,29.92,6.0,NE,8.1,-,N/A,,Haze,50,2013-08-28 18:36:00
2:53 PM,71.1,66.9,87,29.88,4.0,NE,6.9,-,N/A,,Overcast,50,2013-08-28 18:53:00
3:24 PM,71.1,66.9,87,29.93,7.0,NE,8.1,-,N/A,,Overcast,50,2013-08-28 19:24:00
3:53 PM,70.0,66.0,87,29.89,8.0,NE,5.8,-,0.00,Rain,Light Rain,40,2013-08-28 19:53:00
4:14 PM,71.1,66.0,84,29.93,10.0,ENE,6.9,-,0.00,,Overcast,60,2013-08-28 20:14:00
4:48 PM,71.6,66.2,83,29.93,10.0,Variable,4.6,-,0.00,,Overcast,0,2013-08-28 20:48:00
4:53 PM,72.0,66.0,81,29.88,10.0,Variable,4.6,-,0.00,,Overcast,0,2013-08-28 20:53:00
5:53 PM,72.0,66.0,81,29.89,10.0,NE,6.9,-,N/A,,Overcast,40,2013-08-28 21:53:00
6:07 PM,73.0,66.0,79,29.94,10.0,NNE,6.9,-,N/A,,Overcast,30,2013-08-28 22:07:00
6:24 PM,73.9,66.0,76,29.93,10.0,North,4.6,-,N/A,,Overcast,10,2013-08-28 22:24:00
6:53 PM,73.0,64.9,76,29.89,10.0,NNE,4.6,-,N/A,,Partly Cloudy,20,2013-08-28 22:53:00
7:53 PM,70.0,64.9,84,29.91,10.0,North,4.6,-,N/A,,Clear,350,2013-08-28 23:53:00
8:53 PM,69.1,64.9,87,29.93,8.0,Calm,Calm,-,N/A,,Clear,0,2013-08-29 00:53:00
9:53 PM,69.1,66.0,90,29.95,10.0,NNE,5.8,-,N/A,,Mostly Cloudy,20,2013-08-29 01:53:00
10:53 PM,69.1,66.0,90,29.96,8.0,NE,5.8,-,N/A,,Partly Cloudy,50,2013-08-29 02:53:00
11:29 PM,68.0,64.9,90,30.00,6.0,North,3.5,-,N/A,,Partly Cloudy,360,2013-08-29 03:29:00
11:53 PM,66.9,64.0,90,29.96,5.0,NNW,3.5,-,N/A,,Clear,340,2013-08-29 03:53:00